Regional Weather Roundup
Issued by NWS Memphis, TN

Home | Current Version | Previous Version | Text Only | Print | Product List | Glossary On
Versions: 1 2 3 4 5 6 7 8 9 10 11 12 13 14 15 16 17 18 19 20 21 22 23 24 25 26 27 28 29 30 31 32 33 34 35 36 37 38 39 40 41 42 43 44 45 46 47 48 49 50
000
ASUS44 KMEG 042110
RWRMEG
MEMPHIS CWA HOURLY WEATHER ROUNDUP
NATIONAL WEATHER SERVICE MEMPHIS TN
400 PM CDT MON MAY 04 2015

...WEST TENNESSEE...

CITY           SKY/WX    TMP DP  RH WIND       PRES   REMARKS
MEMPHIS INTL   MOSUNNY   83  49  30 CALM      30.16F
NWS MEMPHIS      N/A     85 N/A N/A MISG        N/A
JACKSON        SUNNY     83  51  33 S9        30.17F
LEXINGTON      SUNNY     81  52  36 SW12      30.18F
DYERSBURG      SUNNY     84  48  28 S12       30.16F
PARIS          MOSUNNY   79  54  41 SW9       30.18F


...EASTERN ARKANSAS...

CITY           SKY/WX    TMP DP  RH WIND       PRES   REMARKS
JONESBORO      MOSUNNY   82  57  42 S15       30.13F
WEST MEMPHIS   SUNNY     83  54  36 S9        30.14F
BATESVILLE     SUNNY     82  57  42 SE9G16    30.12F
NEWPORT        MOSUNNY   83  56  39 S14G20    30.14F
WALNUT RIDGE   SUNNY     84  55  37 S16G23    30.12F
BLYTHEVILLE    MOSUNNY   84  53  34 S14G23    30.14F
NW BLYTHEVILLE MOSUNNY   86  55  35 S14G23    30.14F
SEARCY         CLOUDY    83  60  45 S9        30.14F
STUTTGART      MOSUNNY   84  54  34 SE13      30.14F
PINE BLUFF     MOSUNNY   82  56  40 S9        30.13F
MONTICELLO     SUNNY     84  47  27 MISG      30.13F


...NORTH MISSISSIPPI...

CITY           SKY/WX    TMP DP  RH WIND       PRES   REMARKS
TUPELO         SUNNY     83  50  31 S9        30.19F
OXFORD         LGT RAIN  81  54  39 S12       30.19F
OLIVE BRANCH   MOSUNNY   82  46  28 SE6       30.17F
TUNICA         SUNNY     82  45  26 S12G20    30.16F
CLARKSDALE     PTSUNNY   82  55  39 SE13      30.15F
CORINTH        SUNNY     82  45  26 CALM      30.18F
GREENWOOD      SUNNY     83  55  38 S14       30.15F
COLUMBUS       MOSUNNY   87  52  29 SE9       30.18F
STARKVILLE     FAIR      81  54  39 SE7       30.19F
GOLDEN TRIANGL PTSUNNY   82  54  36 SE7       30.19F


...SOUTHEAST MISSOURI...

CITY           SKY/WX    TMP DP  RH WIND       PRES   REMARKS
WEST PLAINS    PTSUNNY   79  52  38 S12       30.14F
POPLAR BLUFF   LGT RAIN  84  52  33 SW15G23   30.11F
CAPE GIRARDEAU SUNNY     86  53  32 SW17G24   30.11F


...NORTHWEST ALABAMA...

CITY           SKY/WX    TMP DP  RH WIND       PRES   REMARKS
MUSCLE SHOALS  SUNNY     83  47  28 SW6       30.21F


...MIDDLE TENNESSEE...

CITY           SKY/WX    TMP DP  RH WIND       PRES   REMARKS
NASHVILLE      PTSUNNY   83  52  34 S8        30.19F
CLARKSVILLE    PTSUNNY   80  55  42 SW12      30.18F
COLUMBIA       MOSUNNY   81  55  41 SE6       30.19F


...WESTERN KENTUCKY...

CITY           SKY/WX    TMP DP  RH WIND       PRES   REMARKS
PADUCAH        MOSUNNY   84  55  36 S8G18     30.14F
FORT CAMPBELL  PTSUNNY   80  56  44 S9G17     30.17F


...CENTRAL ARKANSAS...

CITY           SKY/WX    TMP DP  RH WIND       PRES   REMARKS
LITTLE ROCK    PTSUNNY   81  57  43 S7        30.13F


SKY/WX REPORTED AS FAIR MEANS FEW OR NO CLOUDS BELOW
12 THOUSAND FEET.




USA.gov is the U.S. government's official web portal to all federal, state and local government web resources and services.